Regional Weather Roundup
Issued by NWS

Home | Current Version | Previous Version | Graphics & Text | Print | Product List | Glossary On
Versions: 1 2 3 4 5 6 7 8 9 10 11 12 13 14 15 16 17 18 19 20 21 22 23 24 25 26 27 28 29 30 31 32 33 34 35 36 37 38 39 40 41 42 43 44 45 46 47 48 49 50
000
ASUS43 KDTX 241501
RWRMI
MICHIGAN HOURLY REGIONAL WEATHER ROUNDUP
NATIONAL WEATHER SERVICE DETROIT/PONTIAC MI
1100 AM EDT SUN SEP 24 2017

NOTE: "FAIR" INDICATES FEW OR NO CLOUDS BELOW 12,000 FEET WITH NO
SIGNIFICANT WEATHER AND/OR OBSTRUCTION TO VISIBILITY.

MIZ047>049-052>055-059>063-066>070-074>076-081>083-241600-
SOUTHEAST LOWER MICHIGAN

CITY           SKY/WX    TMP DP  RH WIND       PRES   REMARKS
ADRIAN         SUNNY     80  62  54 SE5       30.17F
ALMA           SUNNY     82  55  39 SW3       30.15S
ANN ARBOR      SUNNY     82  63  52 E3        30.17S
BAD AXE        SUNNY     82  60  48 S3        30.17S
CARO           SUNNY     81  62  52 S3        30.16S
DETROIT CITY   SUNNY     81  62  52 SE5       30.17F
DETROIT        MOSUNNY   81  65  58 CALM      30.18S
FLINT          SUNNY     83  61  47 S6        30.16S
GROSSE ILE     SUNNY     80  70  71 SE3       30.16S
HILLSDALE      PTSUNNY   81  59  47 SE13G48   30.17S
HOWELL         SUNNY     82  60  48 SE7       30.17S

CITY           SKY/WX    TMP DP  RH WIND       PRES   REMARKS
JACKSON        SUNNY     82  60  47 SE7       30.16S
LAMBERTVILLE   SUNNY     82  67  60 SE5       30.16S
LANSING        SUNNY     82  60  47 SE3       30.16S
LAPEER         FAIR      83  62  48 S3        30.18S
MASON          SUNNY     82  62  49 SE5       30.16S
MONROE         SUNNY     82  67  60 SE3       30.16S
MT. CLEMENS    SUNNY     80  65  59 S7        30.16S
PONTIAC        SUNNY     81  61  50 S5        30.17S
PORT HOPE        N/A     82  65  56 CALM      30.14F
PORT HURON     SUNNY     82  66  57 S5        30.18S
TRI CITIES     SUNNY     82  62  50 S6        30.16S
MIDLAND        FAIR      81  61  51 S3        30.14S
TROY           SUNNY     82  62  50 E3        30.19S
SAGINAW HB     SUNNY     81  59  47 CALM      30.15S
$$
MIZ043>046-050>051-056>058-064>065-071>073-077>080-241600-
SOUTHWEST LOWER MICHIGAN

CITY           SKY/WX    TMP DP  RH WIND       PRES   REMARKS
BATTLE CREEK   SUNNY     83  61  47 S9        30.16S
BENTON HARBOR  SUNNY     82  64  54 SE5       30.12S
BIG RAPIDS     SUNNY     78  62  56 CALM      30.14S
COLDWATER      SUNNY     82  56  40 S7        30.16S
FREMONT        FAIR      81  61  51 S5        30.12S
HOLLAND        SUNNY     83  63  50 S7        30.12S
GRAND RAPIDS   SUNNY     84  61  45 S8        30.13S
IONIA          FAIR      83  57  41 S5        30.14S
KALAMAZOO      SUNNY     82  59  45 S8        30.14S
LUDINGTON      SUNNY     81  63  54 S3        30.11S
MARSHALL       SUNNY     82  62  50 CALM      30.15S
MOUNT PLEASANT SUNNY     83  58  43 S3        30.14S
MUSKEGON       SUNNY     83  62  49 VRB7      30.12S
SOUTH HAVEN    SUNNY     82  64  53 S6        30.12S
$$
MIZ016>042-241600-
NORTHERN LOWER MICHIGAN

CITY           SKY/WX    TMP DP  RH WIND       PRES   REMARKS
ALPENA         SUNNY     84  67  56 VRB3      30.14S
BELLAIRE       SUNNY     80  64  58 CALM      30.12S
CADILLAC       SUNNY     83  60  45 SW6       30.15S
CHARLEVOIX     SUNNY     83  65  54 S10       30.14S
FRANKFORT      SUNNY     84  63  48 SW7       30.10F
GAYLORD        SUNNY     80  64  58 SW8       30.16S
GRAYLING       SUNNY     80  62  54 SW5       30.16S
HARBOR SPRINGS SUNNY     80  65  59 CALM      30.11S
HOUGHTON LAKE  SUNNY     79  60  52 W6        30.16F
MANISTEE       SUNNY     81  66  60 CALM      30.11S
OSCODA         SUNNY     82  63  53 SW7       30.14F
PELLSTON       SUNNY     83  67  58 S3        30.11S
ROGERS CITY    SUNNY     83  68  61 S5        30.13S
TRAVERSE CITY  SUNNY     83  63  50 VRB5      30.10F
$$
MIZ007>008-015-241600-
EASTERN UPPER MICHIGAN

CITY           SKY/WX    TMP DP  RH WIND       PRES   REMARKS
KINROSS        SUNNY     79  66  64 SW8       30.11
MACKINAC ISLAN SUNNY     79  62  56 CALM      30.11R
NEWBERRY       SUNNY     76  69  78 S12       30.09S
S. S. MARIE    SUNNY     76  68  76 VRB3      30.09F
MUNISING         N/A     80  69  69 S5        30.04S
$$
MIZ004>006-011>014-085-241600-
CENTRAL UPPER MICHIGAN

CITY           SKY/WX    TMP DP  RH WIND       PRES   REMARKS
MANISTIQUE     SUNNY     72  66  82 S8        30.09R
ESCANABA       SUNNY     75  67  76 S9        30.07S
MENOMINEE      SUNNY     78  68  71 SW6       30.07F
SAWYER-GWINN   SUNNY     75  66  73 S6        30.07S
$$
MIZ001>003-009>011-084-241600-
WESTERN UPPER MICHIGAN

CITY           SKY/WX    TMP DP  RH WIND       PRES   REMARKS
IRON MOUNTAIN  SUNNY     80  65  59 SE3       30.06S
HOUGHTON       SUNNY     77  65  66 S9        30.00S
COPPER HARBOR    N/A     79  65  62 SW8       29.97F
IRONWOOD       SUNNY     78  65  63 S10G18    30.00F
$$

ABBREVIATIONS USED IN REMARKS
   TC - TEMPERATURE IN CELSIUS
  WCI - WIND CHILL INDEX
   HX - HEAT INDEX
  VSB - VISIBILITY




USA.gov is the U.S. government's official web portal to all federal, state and local government web resources and services.